Find SONATE-2

NORAD ID: 59112 Int'l Des: 2024-043 Owner: WURZ Country: D operational
LEOCIRCULARRETROGRADE

实时位置

正在加载3D地球...

关于 SONATE-2

正在加载描述...

即将过境

Passes for default location (London). Set your location on the main map for personalized predictions.

高度历史

Loading altitude history...

两行轨道根数

1 59112U 24043Q 26104.87454970 .00023876 00000-0 36579-3 0 9997
2 59112 97.5453 251.6422 0007334 79.4838 280.7242 15.54314096118048
Epoch: Apr 14, 2026 • Age: 10 hours

当前状态

高度 411.6 km
速度 7.67 km/s
星下点 72.19°N, 74.21°W
发射日期 Mar 4, 2024
运行时间 2.1 years
类型 other

技术详情

分类 Payload
质量 12.00 kg
干质量 12.00 kg
总质量 12.00 kg
长度 0.30 m
直径 0.10 m
跨度 0.60 m
形状 Box + 2 pan
制造商 WURZ
平台类型 Cubesat 6U
阶段状态 In Orbit
所有者/国家 WURZ/D

Most Searched